Glenwood, MN

2:55 PM CDT on May 25, 2017 (GMT -0500)
Glenwood Municipal

Weather History for KGHW - October, 2013

Change the Weather History Date:

Monday, October 7, 2013

  Actual Average Record
Temperature  
Mean Temperature 52 °F -  
Max Temperature 66 °F 62 °F 89 °F (2003)
Min Temperature 39 °F 38 °F 21 °F (2012)
Degree Days  
Heating Degree Days 12    
Growing Degree Days 2 (Base 50)    
Moisture  
Dew Point 40 °F    
Average Humidity 66    
Maximum Humidity 93    
Minimum Humidity 34    
Precipitation  
Precipitation 0.00 in - - ()
Sea Level Pressure  
Sea Level Pressure 29.92 in    
Wind  
Wind Speed 7 mph (WSW)    
Max Wind Speed 13 mph    
Max Gust Speed 17 mph    
Visibility 10 miles    
Events      
Averages and records for this station are not official NWS values.
T = Trace of Precipitation, MM = Missing Value Source: NWS Daily Summary

Daily Weather History Graph

Daily Weather History Graph

Search for Another Location

Airport or City:

Trip Planner

Search our weather history database for the weather conditions in past years. The results will help you decide how hot, cold, wet, or windy it might be!

Date:

Astronomy

Oct. 07, 2013 Rise Set
Actual Time 7:27 AM CDT 6:49 PM CDT
Civil Twilight 6:57 AM CDT 7:19 PM CDT
Nautical Twilight 6:23 AM CDT 7:53 PM CDT
Astronomical Twilight 5:48 AM CDT 8:28 PM CDT
Moon 10:28 AM CDT (10/7) 8:25 PM CDT (10/7)
Length of Visible Light 12h 21m
Length of Day
11h 22m
Waxing Crescent, 9% of the Moon is Illuminated
Oct 7
Waxing Crescent
Oct 11
First Quarter
Oct 18
Full
Oct 26
Last Quarter
Nov 3
New

Hourly Weather History & Observations

Time (CDT) Temp. Windchill Dew Point Humidity Pressure Visibility Wind Dir Wind Speed Gust Speed Precip Events Conditions
12:14 AM 48.2 °F - 42.8 °F 82% 29.87 in 10.0 mi West 11.5 mph - N/A   Scattered Clouds
12:33 AM 48.2 °F - 42.8 °F 82% 29.86 in 10.0 mi West 11.5 mph - N/A   Scattered Clouds
12:54 AM 48.2 °F - 42.8 °F 82% 29.86 in 10.0 mi West 10.4 mph - N/A   Clear
1:13 AM 46.4 °F 41.1 °F 42.8 °F 87% 29.86 in 10.0 mi West 11.5 mph - N/A   Clear
1:33 AM 48.2 °F - 42.8 °F 82% 29.85 in 10.0 mi West 9.2 mph - N/A   Clear
1:53 AM 46.4 °F 41.9 °F 42.8 °F 87% 29.85 in 10.0 mi West 9.2 mph - N/A   Clear
2:13 AM 46.4 °F 40.7 °F 42.8 °F 87% 29.86 in 10.0 mi West 12.7 mph 17.3 mph N/A   Clear
2:34 AM 46.4 °F 41.1 °F 41.0 °F 81% 29.85 in 10.0 mi West 11.5 mph 16.1 mph N/A   Clear
2:53 AM 46.4 °F 41.9 °F 41.0 °F 81% 29.85 in 10.0 mi West 9.2 mph - N/A   Clear
3:13 AM 44.6 °F 40.2 °F 41.0 °F 87% 29.86 in 10.0 mi West 8.1 mph - N/A   Clear
3:34 AM 44.6 °F 40.7 °F 39.2 °F 81% 29.85 in 10.0 mi West 6.9 mph - N/A   Clear
3:53 AM 44.6 °F 41.4 °F 39.2 °F 81% 29.86 in 10.0 mi West 5.8 mph - N/A   Clear
4:13 AM 42.8 °F 38.6 °F 39.2 °F 87% 29.86 in 10.0 mi West 6.9 mph - N/A   Clear
4:33 AM 42.8 °F 39.3 °F 39.2 °F 87% 29.87 in 10.0 mi West 5.8 mph - N/A   Clear
4:53 AM 42.8 °F 39.3 °F 39.2 °F 87% 29.87 in 10.0 mi WNW 5.8 mph - N/A   Clear
5:14 AM 42.8 °F 39.3 °F 39.2 °F 87% 29.87 in 10.0 mi West 5.8 mph - N/A   Clear
5:33 AM 42.8 °F 40.1 °F 39.2 °F 87% 29.88 in 10.0 mi WNW 4.6 mph - N/A   Clear
5:53 AM 41.0 °F 39.0 °F 39.2 °F 93% 29.88 in 10.0 mi West 3.5 mph - N/A   Clear
6:13 AM 41.0 °F 36.4 °F 39.2 °F 93% 29.89 in 10.0 mi WNW 6.9 mph - N/A   Clear
6:33 AM 41.0 °F 38.0 °F 39.2 °F 93% 29.90 in 10.0 mi WNW 4.6 mph - N/A   Clear
6:53 AM 41.0 °F 37.1 °F 39.2 °F 93% 29.90 in 10.0 mi WNW 5.8 mph - N/A   Clear
7:13 AM 41.0 °F 39.0 °F 39.2 °F 93% 29.91 in 10.0 mi West 3.5 mph - N/A   Clear
7:33 AM 39.2 °F 35.0 °F 37.4 °F 93% 29.92 in 10.0 mi WNW 5.8 mph - N/A   Clear
7:53 AM 41.0 °F 38.0 °F 39.2 °F 93% 29.93 in 10.0 mi WNW 4.6 mph - N/A   Clear
8:13 AM 42.8 °F - 41.0 °F 93% 29.94 in 10.0 mi Calm Calm - N/A   Clear
8:33 AM 44.6 °F 43.1 °F 42.8 °F 93% 29.94 in 10.0 mi West 3.5 mph - N/A   Clear
8:53 AM 46.4 °F 45.2 °F 44.6 °F 93% 29.95 in 10.0 mi NW 3.5 mph - N/A   Clear
9:13 AM 48.2 °F - 44.6 °F 87% 29.95 in 10.0 mi Calm Calm - N/A   Clear
9:33 AM 51.8 °F - 44.6 °F 76% 29.96 in 10.0 mi NNW 3.5 mph - N/A   Clear
9:53 AM 53.6 °F - 42.8 °F 67% 29.96 in 10.0 mi NNE 4.6 mph - N/A   Clear
10:14 AM 55.4 °F - 44.6 °F 67% 29.96 in 10.0 mi North 3.5 mph - N/A   Clear
10:33 AM 57.2 °F - 42.8 °F 59% 29.97 in 10.0 mi Calm Calm - N/A   Clear
10:53 AM 57.2 °F - 42.8 °F 59% 29.97 in 10.0 mi NNE 5.8 mph - N/A   Clear
11:14 AM 59.0 °F - 39.2 °F 48% 29.97 in 10.0 mi North 4.6 mph - N/A   Clear
11:33 AM 60.8 °F - 35.6 °F 39% 29.98 in 10.0 mi NNE 3.5 mph - N/A   Clear
11:53 AM 60.8 °F - 39.2 °F 45% 29.98 in 10.0 mi Calm Calm - N/A   Clear
12:14 PM 62.6 °F - 39.2 °F 42% 29.98 in 10.0 mi Calm Calm - N/A   Clear
12:33 PM 60.8 °F - 37.4 °F 42% 29.98 in 10.0 mi Calm Calm - N/A   Clear
12:53 PM 62.6 °F - 39.2 °F 42% 29.98 in 10.0 mi Calm Calm - N/A   Clear
1:13 PM 62.6 °F - 37.4 °F 39% 29.97 in 10.0 mi WSW 5.8 mph - N/A   Clear
1:33 PM 62.6 °F - 37.4 °F 39% 29.97 in 7.0 mi SW 6.9 mph - N/A   Clear
1:53 PM 64.4 °F - 37.4 °F 37% 29.97 in 10.0 mi West 9.2 mph - N/A   Clear
2:13 PM 64.4 °F - 39.2 °F 40% 29.97 in 10.0 mi West 4.6 mph - N/A   Clear
2:33 PM 64.4 °F - 37.4 °F 37% 29.97 in 10.0 mi WSW 6.9 mph - N/A   Clear
2:53 PM 64.4 °F - 37.4 °F 37% 29.96 in 10.0 mi West 8.1 mph - N/A   Clear
3:13 PM 64.4 °F - 35.6 °F 34% 29.95 in 10.0 mi West 4.6 mph - N/A   Clear
3:34 PM 66.2 °F - 37.4 °F 35% 29.95 in 10.0 mi Calm Calm - N/A   Clear
3:53 PM 66.2 °F - 37.4 °F 35% 29.95 in 10.0 mi WSW 5.8 mph - N/A   Clear
4:13 PM 66.2 °F - 37.4 °F 35% 29.95 in 10.0 mi West 8.1 mph - N/A   Clear
4:34 PM 66.2 °F - 37.4 °F 35% 29.94 in 10.0 mi Calm Calm - N/A   Clear
4:53 PM 66.2 °F - 37.4 °F 35% 29.94 in 10.0 mi South 3.5 mph - N/A   Clear
5:13 PM 64.4 °F - 35.6 °F 34% 29.94 in 10.0 mi South 6.9 mph - N/A   Clear
5:33 PM 64.4 °F - 35.6 °F 34% 29.94 in 10.0 mi South 4.6 mph - N/A   Clear
5:53 PM 64.4 °F - 35.6 °F 34% 29.94 in 10.0 mi South 4.6 mph - N/A   Clear
6:14 PM 62.6 °F - 41.0 °F 45% 29.94 in 10.0 mi South 3.5 mph - N/A   Clear
6:33 PM 60.8 °F - 41.0 °F 48% 29.93 in 10.0 mi SSE 3.5 mph - N/A   Clear
6:53 PM 57.2 °F - 39.2 °F 51% 29.93 in 10.0 mi SSE 3.5 mph - N/A   Clear
7:14 PM 55.4 °F - 41.0 °F 58% 29.94 in 10.0 mi SE 3.5 mph - N/A   Clear
7:33 PM 55.4 °F - 42.8 °F 63% 29.94 in 10.0 mi SE 4.6 mph - N/A   Clear
7:53 PM 53.6 °F - 42.8 °F 67% 29.94 in 10.0 mi SE 5.8 mph - N/A   Clear
8:13 PM 51.8 °F - 42.8 °F 71% 29.94 in 10.0 mi ESE 5.8 mph - N/A   Clear
8:34 PM 50.0 °F - 41.0 °F 71% 29.93 in 10.0 mi ESE 6.9 mph - N/A   Clear
8:53 PM 50.0 °F - 39.2 °F 66% 29.93 in 10.0 mi SE 6.9 mph - N/A   Clear
9:13 PM 50.0 °F - 39.2 °F 66% 29.93 in 10.0 mi SE 5.8 mph - N/A   Clear
9:33 PM 50.0 °F - 39.2 °F 66% 29.93 in 10.0 mi SE 8.1 mph - N/A   Clear
9:53 PM 50.0 °F - 39.2 °F 66% 29.93 in 10.0 mi SE 6.9 mph - N/A   Clear
10:13 PM 50.0 °F - 39.2 °F 66% 29.92 in 10.0 mi SE 9.2 mph - N/A   Clear
10:33 PM 50.0 °F - 39.2 °F 66% 29.92 in 10.0 mi SE 8.1 mph - N/A   Clear
10:53 PM 48.2 °F - 39.2 °F 71% 29.92 in 10.0 mi SE 6.9 mph - N/A   Clear
11:13 PM 48.2 °F - 39.2 °F 71% 29.92 in 10.0 mi SE 8.1 mph - N/A   Clear
11:33 PM 48.2 °F - 39.2 °F 71% 29.92 in 10.0 mi SE 6.9 mph - N/A   Clear
11:53 PM 46.4 °F 43.5 °F 39.2 °F 76% 29.92 in 10.0 mi ESE 5.8 mph - N/A   Clear